Regional Weather Roundup
Issued by NWS Charleston, SC

Current Version | Previous Version | Text Only | Print | Product List | Glossary Off
Versions: 1 2 3 4 5 6 7 8 9 10 11 12 13 14 15 16 17 18 19 20 21 22 23 24 25 26 27 28 29 30 31 32 33 34 35 36 37 38 39 40 41 42 43 44 45 46 47 48 49 50
717 ASUS42 KCHS 271612 RWRCHS Regional Weather Roundup National Weather Service Charleston SC 1200 PM EDT SUN MAY 27 2018 NOTE: "fair" indicates few or no clouds below 12,000 feet with no significant weather and/or obstructions to visibility. Not all stations are quality controlled. Use data with caution, especially dewpoint observations. SCZ027-030-031-034>040-042>050-271700- ...Southeast South Carolina... CITY SKY/WX TMP DP RH WIND PRES REMARKS N Charleston CLOUDY 82 69 64 SE12 30.00F Waterfront Prk N/A 80 73 79 E10 29.85S Mount Pleasant FAIR 81 73 78 SE8 30.01S Johns Island FAIR 81 72 74 E13 30.00S Pinopolis N/A 81 72 74 VRB3 29.95S Moncks Corner PTSUNNY 81 68 65 SE8 30.01S Summerville FAIR 81 70 69 E6 30.02R Beaufort MCAS LGT RAIN 76 70 82 E9G25 29.99R Beaufort Arpt CLOUDY 77 72 83 E12 29.98S Hilton Head Is CLOUDY 81 70 69 SE7 29.99S Walterboro FAIR 81 68 65 E9 30.01S Allendale FAIR 82 70 65 SE8 29.98S ...Southern Midlands and Pee Dee... CITY SKY/WX TMP DP RH WIND PRES REMARKS Georgetown FAIR 81 73 78 SE9 30.03S Kingstree FAIR 81 70 69 SE7 30.01F Orangeburg FAIR 81 67 62 SE6 30.00F Barnwell FAIR 81 70 69 SE8 30.00S Aiken FAIR 79 68 69 E6 30.04F Manning FAIR 77 64 65 S5 30.01S Columbia CLOUDY 83 69 62 SE10 30.00S Sumter PTSUNNY 83 67 59 E3 29.99F Florence FAIR 83 69 62 SE7 30.02F Myrtle Beach FAIR 81 71 71 SE9 30.04F N Myrtle Beach FAIR 79 70 74 S8 30.03S $$ GAZ063-065-086>088-099>101-113>116-118-119-134>141-150-271700- ...Southeast Georgia... CITY SKY/WX TMP DP RH WIND PRES REMARKS Savannah Arpt PTSUNNY 83 68 60 E17G23 29.97S Hunter AAF FAIR 79 71 76 SE16 29.94S Fort Stewart PTSUNNY 77 72 83 E7 29.94S Statesboro FAIR 83 67 59 SE8 29.97S Sylvania FAIR 85 71 62 E9 29.98F Claxton FAIR 83 72 67 NE7 29.95F ...CSRA, Central and far Southeast Georgia... CITY SKY/WX TMP DP RH WIND PRES REMARKS Thomson FAIR 79 69 71 SE7 30.04F Augusta-Bush PTSUNNY 80 71 74 E5 29.98F Augusta-Daniel FAIR 81 68 64 SE7 30.00F Swainsboro FAIR 82 72 69 E12 29.98S Vidalia PTSUNNY 82 66 57 E10 29.95F Eastman PTSUNNY 83 63 49 NE9 29.97S Hazlehurst N/A 80 70 71 CALM 29.93F Alma CLOUDY 79 69 71 E8 29.93F Waycross LGT RAIN 78 74 90 E12G17 29.92F Jesup LGT RAIN 76 70 79 SE12G20 29.95S Baxley CLOUDY 75 75 100 SE8 29.94F Brunswick DRIZZLE 73 68 83 E12 29.95F Saint Simons LGT RAIN 74 69 85 E14 29.94F $$ SCZ027-028-034-036>038-045-046-048>050-GAZ119-141-271700- ...Lake and Supplemental Coastal Observations... STATION/POSITION TIME TEMP WIND PRES WAVE SWELL AIR SEA DIR/SP/G HT/PER HT/PER/DIR (UTC) (F) (DEG/KT/KT) (MB) (FT/S) (FT/S/D) Winyah Bay 1445 78 120/ 7 1017.0 Lake Murray 1520 79 CALM / 1 1015.2 ACE Basin NERRS 1445 82 100/ 4 1016.0 Fort Pulaski 1536 79 79 110/ 13/ 19 1015.4S Sapelo Island 1500 74 110/ 5 1014.0 $$ ANZ835-935-AMZ111-154-330-350-352-354-370-450-454-472-271700- ...C-MAN and Buoy Observations... STATION/POSITION TIME TEMP WIND PRES WAVE SWELL AIR SEA DIR/SP/G HT/PER HT/PER/DIR (UTC) (F) (DEG/KT/KT) (MB) (FT/S) (FT/S/D) Buoy 41004 1550 77 110/ 10/ 14 1016.5R 3/ 6 3/160/ 6 Buoy 41008 1550 74 77 100/ 17/ 19 1013.9R 4/ 5 2/110/ 8 Folly Beach CMAN 1500 77 100/ 12/ 14 1016.6S Capers Nearshore 1508 78 78 110/ 8/ 12 1017.1R Fripp Nearshore 1508 77 79 90/ 12/ 17 1015.1R STATION/POSITION TIME TEMP WIND PRES WAVE SWELL AIR SEA DIR/SP/G HT/PER HT/PER/DIR (UTC) (F) (DEG/KT/KT) (MB) (FT/S) (FT/S/D) 5E St. Marys GA 1600 77 N/A 4/ 6 Frying Pan Buoy 1550 78 78 110/ 10/ 12 1017.2F 3/ 8 2/120/ 8 Buoy 41025 1550 78 78 190/ 14/ 16 1018.4S 3/ 5 2/130/ 8 Cape Lookout NC 1500 170/ 6/ 7 1018.1F Buoy 41002 1550 78 150/ 16/ 17 1018.5S 4/ 4 2/130/ 8 Buoy 41010 1550 76 78 120/ 21/ 27 1014.2R 8/ 7 St Augustine FL 1600 76 77 100/ 11/ 13 1011.4F $$

USA.gov is the U.S. government's official web portal to all federal, state and local government web resources and services.